KTXEAGLE7 Weather Reports


Display with metric or nautical units.
time (UTC)temp
F
wind
direction
speed
MPH
gust
MPH
rain 1hr
in
rain 24hr
in
rain mn
in
humidity
%
barometer
mb
20260509204547 89 57 2.0 5.0 0.00 0.00 0.00 70 1008.7
20260509203054 87 81 1.0 3.0 0.00 0.00 0.00 70 1008.8
20260509201540 86 236 2.0 5.0 0.00 0.00 0.00 73 1009.1
20260509200040 86 77 1.0 5.0 0.00 0.00 0.00 72 1009.3
20260509194537 86 5 0.0 5.0 0.00 0.00 0.00 72 1009.5
20260509193033 86 51 2.0 6.0 0.00 0.00 0.00 75 1009.7
20260509191547 85 350 2.0 4.0 0.00 0.00 0.00 74 1009.6
20260509190032 84 360 0.0 6.0 0.00 0.00 0.00 75 1009.6
20260509184535 83 302 2.0 5.0 0.00 0.00 0.00 79 1009.9
20260509183030 82 246 4.0 7.0 0.00 0.00 0.00 80 1010.0
20260509181522 82 295 2.0 6.0 0.00 0.00 0.00 79 1010.3
20260509180021 82 226 3.0 6.0 0.00 0.01 0.00 78 1010.7
20260509174524 82 319 2.0 5.0 0.00 0.01 0.00 80 1010.8
20260509173019 81 216 2.0 7.0 0.00 0.01 0.00 82 1011.2
20260509171517 80 169 2.0 5.0 0.00 0.01 0.00 82 1011.4
20260509170022 80 262 2.0 7.0 0.00 0.02 0.00 84 1011.7
20260509164515 80 186 2.0 6.0 0.00 0.02 0.00 87 1011.5
20260509163012 78 297 0.0 4.0 0.00 0.02 0.00 89 1011.2
20260509161507 77 37 2.0 4.0 0.00 0.02 0.00 94 1011.2
20260509160004 76 101 2.0 4.0 0.00 0.02 0.00 98 1011.4
20260509154502 75 103 4.0 7.0 0.00 0.02 0.00 100 1011.3
20260509153117 75 114 1.0 6.0 0.00 0.02 0.00 100 1011.4
20260509151559 74 138 3.0 6.0 0.00 0.02 0.00 100 1011.1
20260509150058 74 107 2.0 4.0 0.00 0.02 0.00 100 1011.1
20260509144559 74 142 2.0 3.0 0.00 0.02 0.00 100 1011.0
20260509143056 74 326 1.0 5.0 0.00 0.02 0.00 100 1010.5
20260509141556 74 50 2.0 4.0 0.00 0.02 0.00 100 1009.8
20260509140100 74 74 1.0 3.0 0.00 0.02 0.00 100 1009.9
20260509134554 74 73 1.0 2.0 0.00 0.02 0.00 100 1010.5
20260509133053 73 73 1.0 3.0 0.00 0.02 0.00 100 1010.6
20260509131552 74 74 1.0 3.0 0.00 0.02 0.00 100 1011.1
20260509130104 73 150 2.0 5.0 0.00 0.02 0.00 100 1011.2
20260509124555 73 95 0.0 2.0 0.00 0.02 0.00 100 1011.3
20260509123052 73 95 1.0 2.0 0.00 0.02 0.00 100 1011.9
20260509121550 73 95 1.0 7.0 0.00 0.02 0.00 100 1011.1
20260509120147 73 72 2.0 4.0 0.00 0.02 0.00 100 1011.2
20260509114553 73 186 0.0 2.0 0.00 0.02 0.00 100 1011.3
20260509113053 73 186 3.0 4.0 0.00 0.02 0.00 100 1010.5
20260509111543 73 87 0.0 1.0 0.00 0.02 0.00 100 1010.8
20260509110042 73 87 1.0 3.0 0.00 0.02 0.00 100 1010.9
20260509104543 73 360 0.0 1.0 0.00 0.02 0.00 100 1010.9
20260509103048 73 360 0.0 3.0 0.00 0.02 0.00 100 1010.5
20260509101557 73 52 0.0 2.0 0.00 0.02 0.00 100 1010.4
20260509100041 73 52 0.0 2.0 0.00 0.02 0.00 100 1010.5
20260509094545 73 52 0.0 2.0 0.00 0.02 0.00 100 1010.2
20260509093039 73 52 0.0 2.0 0.00 0.02 0.00 100 1010.0
20260509091540 73 52 1.0 4.0 0.00 0.02 0.00 100 1009.8
20260509090045 73 152 1.0 2.0 0.00 0.02 0.00 100 1009.8
20260509084542 73 152 1.0 3.0 0.00 0.02 0.00 100 1010.0
20260509083050 73 152 0.0 2.0 0.00 0.02 0.00 100 1010.5
20260509081536 73 152 0.0 2.0 0.00 0.02 0.00 100 1010.4
20260509080039 73 152 0.0 3.0 0.00 0.02 0.00 100 1010.1
20260509074538 73 152 2.0 7.0 0.00 0.02 0.00 100 1010.0
20260509073035 73 148 4.0 9.0 0.00 0.02 0.00 100 1009.9
20260509071541 73 148 6.0 10.0 0.00 0.02 0.00 100 1010.0
20260509070031 73 136 6.0 9.0 0.00 0.02 0.00 99 1010.5
20260509064528 73 136 5.0 7.0 0.00 0.02 0.00 99 1010.5
20260509063024 73 124 3.0 7.0 0.00 0.02 0.00 99 1010.7
20260509061523 73 126 3.0 7.0 0.00 0.02 0.00 99 1010.9
20260509060019 73 125 3.0 6.0 0.00 0.02 0.00 99 1010.9
20260509054519 73 124 2.0 4.0 0.00 0.02 0.00 99 1011.0
20260509053018 73 134 2.0 5.0 0.00 0.02 0.00 99 1011.0
20260509051516 73 125 4.0 8.0 0.00 0.02 0.00 99 1010.9
20260509050020 73 128 5.0 9.0 0.00 0.02 0.02 98 1011.1
20260509044518 73 132 5.0 10.0 0.00 0.02 0.02 98 1010.8
20260509043015 73 122 8.0 11.0 0.00 0.02 0.02 98 1010.7
20260509041513 73 131 5.0 9.0 0.00 0.02 0.02 98 1010.7
20260509040025 73 119 4.0 6.0 0.00 0.02 0.02 98 1010.7
20260509034512 72 95 3.0 7.0 0.00 0.02 0.02 97 1010.8
20260509033012 72 101 3.0 6.0 0.00 0.02 0.02 97 1010.7
20260509031512 72 95 3.0 6.0 0.00 0.02 0.02 97 1010.6
20260509030019 72 62 3.0 5.0 0.00 0.02 0.02 97 1010.3
20260509024514 72 82 2.0 4.0 0.00 0.02 0.02 97 1010.4
20260509023010 72 82 2.0 3.0 0.00 0.02 0.02 96 1010.2
20260509021509 72 55 1.0 4.0 0.00 0.02 0.02 96 1009.9
20260509020009 73 81 2.0 4.0 0.00 0.02 0.02 96 1009.7
20260509014508 73 81 2.0 5.0 0.00 0.02 0.02 96 1009.5
20260509013008 73 73 3.0 7.0 0.00 0.02 0.02 96 1009.6
20260509011508 73 117 4.0 7.0 0.00 0.02 0.02 96 1009.6
20260509010006 73 87 3.0 7.0 0.00 0.02 0.02 95 1009.6
20260509004507 73 128 4.0 7.0 0.00 0.02 0.02 95 1009.5
20260509003009 73 84 5.0 10.0 0.00 0.02 0.02 95 1009.5
20260509001509 73 100 5.0 8.0 0.00 0.02 0.02 95 1009.4
20260509000005 74 100 6.0 9.0 0.00 0.02 0.02 94 1009.4
20260508234505 74 104 5.0 11.0 0.00 0.02 0.02 94 1009.5
20260508233003 74 100 5.0 9.0 0.00 0.02 0.02 94 1009.3
20260508231503 74 107 6.0 9.0 0.00 0.02 0.02 94 1009.3
20260508230003 74 65 6.0 9.0 0.00 0.02 0.02 94 1009.3
20260508224647 74 94 6.0 9.0 0.00 0.02 0.02 94 1009.5
20260508223100 74 74 2.0 9.0 0.00 0.02 0.02 93 1009.7
20260508221559 74 98 6.0 9.0 0.00 0.02 0.02 93 1009.5
20260508220058 74 102 5.0 9.0 0.00 0.02 0.02 93 1009.7
20260508214556 74 115 5.0 10.0 0.00 0.02 0.02 94 1009.8
20260508213053 73 83 6.0 8.0 0.00 0.02 0.02 94 1009.8
20260508211552 73 121 5.0 8.0 0.00 0.02 0.02 94 1010.0
20260508210048 72 113 3.0 8.0 0.00 0.02 0.02 94 1010.4